Temperature
19 17 17 17 18 20 19 19 19 20 20 19 18 18 19 19 18 18 18 18 19 19 18 18 17 17 16 16 15 14 14 13 13 13 13 13 12 12 12 12 12 12 12 13
18 18 19 19 19 19 19 19 20 20 20 19 18 18 18 18 18 18 18 18 19 19 18 18 17 17 16 15 15 14 14 13 13 13 12 12 12 12 12 12 12 12 12 12
19 19 20 20 19 19 19 19 20 20 20 19 19 19 18 18 18 18 19 19 19 19 19 18 17 17 16 15 15 14 14 13 13 13 12 12 12 12 12 12 12 12 12 12
19 19 20 20 19 19 19 20 20 20 19 18 19 17 18 17 17 17 18 18 19 19 19 18 17 17 16 16 15 14 14 13 13 13 12 12 12 12 12 12 12 12 12 12
19 19 20 20 20 20 20 20 19 19 19 17 17 17 17 17 17 17 17 18 19 19 19 18 18 17 16 15 15 14 14 13 13 13 13 12 12 12 12 12 12 12 12 12
19 19 20 20 20 20 19 18 17 15 16 17 18 17 17 16 17 17 17 18 19 19 19 18 18 17 16 15 15 14 14 13 13 13 13 12 12 12 12 12 12 12 11 12
20 20 20 21 20 20 19 18 17 18 16 16 17 17 16 17 17 17 17 19 20 20 19 18 18 17 16 16 15 15 14 14 13 13 13 13 12 12 12 12 12 12 11 11
20 20 21 21 21 20 19 18 17 18 17 16 17 16 17 18 18 19 19 20 20 19 19 19 18 17 17 16 15 15 14 14 14 13 13 13 12 12 12 12 12 12 11 11
19 20 21 21 21 19 18 17 17 15 16 16 16 16 17 18 18 18 18 18 19 20 19 19 18 18 17 16 16 15 15 14 14 14 13 13 13 12 12 12 12 12 11 11
19 20 21 21 21 19 18 15 14 15 16 17 16 17 17 18 18 18 16 17 19 20 19 19 18 18 17 16 16 15 15 15 14 14 14 13 13 12 12 12 12 12 11 11
20 20 20 21 21 20 18 17 14 13 14 15 16 16 17 17 17 17 17 19 20 20 20 19 19 18 17 16 16 16 15 15 15 14 14 13 13 13 12 12 12 12 12 11
18 17 18 19 20 20 19 17 15 16 16 13 14 15 17 16 16 17 18 20 21 21 20 20 19 18 17 17 16 16 15 15 15 14 14 14 13 13 13 13 12 12 12 12
17 17 18 19 18 19 19 17 16 14 13 12 14 16 17 17 17 18 19 20 21 21 20 19 19 18 18 17 16 16 16 15 15 15 15 14 14 14 13 13 13 12 12 12
17 17 18 19 19 19 19 18 15 15 14 13 14 16 17 18 18 18 19 21 21 21 20 20 19 18 18 17 17 16 16 16 15 15 15 15 14 14 14 14 13 13 13 12
18 18 18 18 18 19 19 19 16 16 15 16 16 15 17 17 17 19 20 21 20 21 20 20 19 19 18 17 17 17 16 16 16 16 15 15 15 15 14 14 14 13 13 13
16 18 18 19 19 18 18 18 17 16 16 16 16 16 17 18 19 19 20 20 20 21 21 20 20 19 18 18 17 17 17 16 16 16 16 16 15 15 15 14 14 14 14 13
15 16 17 17 17 18 17 18 18 17 16 16 17 18 18 17 16 19 21 21 21 21 21 20 20 19 19 18 18 17 17 17 17 16 16 16 16 16 15 15 15 14 14 14
15 15 14 15 18 18 18 18 18 18 18 16 17 17 17 18 21 22 23 23 22 22 21 21 20 20 19 18 18 18 17 17 17 17 17 16 16 16 16 15 15 15 14 14
14 14 13 14 16 16 17 18 18 18 18 18 17 18 18 19 19 20 22 23 22 22 21 21 20 20 19 19 18 18 17 17 17 17 17 17 16 16 16 16 15 15 15 14
13 13 13 13 17 17 18 19 20 19 19 19 17 17 17 17 16 19 23 23 22 21 21 21 20 20 19 19 18 18 18 17 17 17 17 17 17 16 16 16 15 15 15 14
15 14 14 13 15 16 17 18 19 19 19 21 20 19 18 17 21 23 24 23 22 21 21 20 20 19 19 19 18 18 18 18 17 17 17 17 16 16 16 16 15 15 15 14
15 14 13 12 14 16 18 18 18 19 21 21 22 21 21 22 22 23 23 23 22 21 20 20 20 19 19 18 18 18 18 17 17 17 17 16 16 16 16 15 15 15 15 14
13 14 13 14 16 17 18 19 20 20 20 21 22 22 22 22 22 22 23 22 21 21 20 20 19 19 19 18 18 18 17 17 17 17 16 16 16 15 15 15 15 14 14 14
14 13 13 13 14 17 19 20 21 21 20 21 21 22 22 22 23 22 22 22 21 21 20 20 19 19 18 18 18 17 17 17 17 16 16 16 15 15 15 14 14 13 13 13
14 14 13 13 14 16 20 20 20 20 20 21 21 22 22 22 22 22 22 22 21 21 20 19 19 19 18 18 18 17 17 17 16 16 16 15 15 14 14 13 12 12 12 12
13 14 14 14 16 15 17 18 18 18 19 20 20 21 22 22 22 22 22 22 21 21 20 19 19 19 18 18 17 17 17 16 16 16 15 15 14 13 12 12 11 11 10 10
Wind_Speed
5 6 6 10 10 5 5 5 6 6 5 7 8 10 8 6 8 9 8 8 9 9 6 5 5 5 4 2 2 1 1 1 1 2 2 2 3 3 3 4 6 6 6 6
5 4 8 7 5 4 4 5 6 4 3 6 5 9 8 7 9 10 11 11 10 8 6 6 6 5 4 3 3 2 2 2 1 0 0 0 1 2 2 3 4 6 6 5
7 6 7 7 6 6 6 7 6 4 2 2 2 7 6 3 5 6 7 8 8 11 10 9 7 6 5 5 5 4 4 3 2 0 1 2 2 3 4 4 4 5 6 5
3 3 6 6 6 8 6 6 5 3 3 3 0 4 8 4 4 6 8 8 9 9 9 8 8 7 7 7 5 5 4 3 2 0 1 1 1 1 2 3 3 5 5 5
2 4 5 5 6 8 4 3 4 3 3 2 1 2 8 2 6 9 10 10 10 10 10 10 10 9 8 7 6 5 4 4 2 1 1 1 1 1 2 2 4 4 4 5
2 2 3 5 2 5 6 7 7 6 5 2 4 5 7 5 8 7 8 10 10 10 10 9 8 7 6 5 5 5 5 5 3 2 2 2 2 2 2 3 3 4 3 4
3 1 1 3 5 4 5 6 4 4 4 6 3 4 9 7 8 8 9 10 10 10 10 9 9 9 8 8 7 6 6 6 4 3 3 3 3 3 3 3 2 3 3 3
3 2 3 3 5 6 5 8 6 4 5 5 2 6 8 7 6 5 6 7 9 9 10 10 11 10 9 9 8 7 7 7 5 4 4 4 3 3 3 3 2 2 2 3
6 4 1 1 3 9 7 4 6 6 2 3 6 8 9 3 1 2 4 6 9 10 11 11 10 9 9 9 9 8 8 7 6 5 4 4 4 3 3 3 2 2 3 3
6 3 1 0 6 6 5 9 6 5 3 4 7 6 6 7 8 6 6 8 9 9 9 10 9 9 9 9 8 7 7 7 6 5 5 4 4 4 3 2 3 3 3 2
3 4 1 1 4 6 5 5 6 5 5 5 4 8 7 9 9 10 10 9 10 10 11 10 10 9 8 7 6 6 6 6 5 5 4 4 3 3 2 3 3 3 2 2
4 5 1 5 3 3 6 8 8 5 4 5 4 8 8 8 9 9 10 9 8 9 9 9 9 8 7 8 7 7 7 6 6 5 4 4 3 2 3 3 3 2 2 2
7 6 2 6 5 1 3 5 5 6 6 6 5 8 5 4 5 8 9 9 8 8 8 7 8 8 9 9 8 7 7 7 6 4 4 4 4 4 4 4 3 2 2 2
6 5 6 8 8 5 4 5 6 7 5 7 9 11 10 8 8 8 9 9 8 8 8 9 9 9 9 9 8 8 8 7 6 5 5 5 5 5 5 4 3 3 3 3
5 4 6 7 7 4 6 7 8 9 10 11 11 11 14 11 11 11 8 8 7 8 9 10 10 9 9 8 8 8 7 7 6 6 6 7 6 5 4 4 4 3 3 3
4 5 3 5 5 5 6 9 9 11 8 10 9 12 14 10 6 7 9 10 10 10 11 11 11 10 10 10 9 8 8 7 6 7 8 6 5 5 5 5 4 4 4 4
4 7 5 5 5 4 7 11 12 9 9 11 13 16 10 7 10 13 12 12 13 12 11 11 11 11 11 11 10 10 9 6 7 7 7 6 6 6 6 5 5 5 5 4
8 7 5 3 1 7 10 6 8 9 11 12 12 11 10 13 12 9 10 12 12 11 11 11 10 10 10 9 8 8 6 6 7 7 7 6 6 7 6 5 6 6 5 5
6 8 5 4 4 8 11 8 6 8 10 11 15 14 8 5 2 4 9 11 12 11 10 10 10 9 9 9 8 7 6 6 6 6 7 6 6 6 6 7 7 6 4 5
5 5 6 5 4 6 10 6 3 4 7 9 10 12 8 10 5 9 8 10 10 9 7 8 7 7 8 8 8 8 7 6 6 6 6 5 5 6 6 7 6 4 4 5
3 3 5 6 6 9 10 4 5 3 8 6 5 8 11 12 10 6 8 9 9 8 8 8 8 8 7 8 9 9 7 6 6 4 3 2 3 4 5 4 3 4 4 4
8 6 7 6 5 9 5 4 6 8 6 7 5 6 11 11 5 5 9 10 10 9 8 8 8 7 6 8 10 9 7 5 3 3 3 1 0 0 1 1 2 2 3 4
7 8 7 9 9 6 3 6 7 6 7 8 6 7 8 8 8 8 8 10 10 10 9 8 9 8 6 6 8 9 6 5 5 5 4 2 2 2 2 1 1 1 1 2
4 2 3 5 9 8 8 7 6 5 7 9 9 8 7 9 9 10 9 9 10 9 9 9 10 10 7 6 6 7 7 7 7 6 4 3 3 3 3 3 2 2 2 2
5 1 3 7 9 10 8 6 7 9 9 10 9 6 8 9 9 11 11 12 11 9 9 10 11 11 9 8 7 7 7 8 8 6 5 4 4 3 3 3 3 3 3 2
6 6 6 9 9 7 13 13 12 12 13 11 10 9 7 9 11 11 12 12 11 11 10 10 10 11 10 9 8 7 7 8 9 7 5 4 3 3 3 3 4 8 7 11
Wind_Direction
109 109 163 188 189 177 174 196 240 250 197 179 218 248 261 202 198 206 204 202 207 210 204 183 170 157 151 160 173 195 253 318 2 17 13 8 352 340 350 357 5 9 9 10
88 185 199 178 167 152 179 209 245 274 175 187 240 265 265 211 206 206 202 204 203 195 185 185 175 171 182 191 202 222 239 267 292 293 280 268 300 310 308 324 354 10 8 6
152 201 161 146 157 174 202 205 222 223 83 67 332 306 288 257 215 203 200 199 196 192 192 189 185 192 196 208 212 216 228 244 260 332 45 28 20 2 357 352 348 345 354 5
147 179 150 150 176 168 227 228 199 158 116 281 90 281 289 283 244 218 208 197 197 195 188 189 190 197 207 216 215 221 228 240 249 183 97 89 71 339 303 308 318 329 348 1
166 167 155 178 200 176 199 71 107 97 129 356 327 198 286 296 248 239 221 209 202 195 189 192 196 201 209 211 211 220 230 245 245 217 186 155 203 255 293 314 334 344 346 356
136 192 190 191 143 146 124 72 58 52 70 309 237 182 278 238 225 237 217 207 199 192 191 196 198 199 213 217 218 219 227 246 246 236 227 217 235 262 308 327 337 338 337 341
40 351 266 148 102 77 95 91 30 352 0 257 266 210 250 258 242 229 216 205 194 186 184 190 195 203 212 217 219 219 223 243 248 243 243 238 242 244 253 273 293 315 327 327
137 264 236 192 168 158 153 139 159 212 238 283 299 239 256 263 271 237 210 189 182 185 188 195 200 203 210 217 220 218 223 238 245 241 245 243 243 235 246 254 260 277 278 288
168 232 297 173 141 131 133 156 156 133 176 280 284 285 300 246 253 164 162 168 190 195 195 200 202 204 210 217 220 217 221 235 242 237 240 245 243 238 249 261 267 273 279 290
153 178 297 100 86 45 134 139 106 119 159 271 296 285 259 252 233 214 200 202 209 204 201 203 203 207 212 219 222 219 221 230 238 235 235 236 236 241 244 253 276 285 294 311
138 149 318 45 187 179 119 105 106 111 147 162 276 279 234 235 224 214 217 213 208 202 203 204 206 208 211 218 219 221 225 229 237 237 233 239 248 246 241 250 268 279 296 316
140 122 215 264 267 196 179 169 149 156 207 177 193 270 270 256 242 221 222 221 214 208 206 203 201 200 205 215 219 221 224 227 234 230 225 232 241 235 242 256 265 267 291 304
141 116 58 343 339 300 199 170 158 131 125 159 182 262 292 300 250 228 226 228 220 212 205 198 195 199 207 214 217 220 223 227 230 217 216 227 233 232 241 250 258 260 272 290
119 127 170 211 230 220 221 186 160 142 164 203 220 246 283 277 253 239 227 223 215 210 201 195 199 205 209 213 215 218 226 224 219 209 213 227 233 232 239 246 250 250 253 264
117 183 221 238 238 214 229 225 189 196 201 205 232 232 250 245 233 230 220 210 203 205 202 201 203 206 207 212 217 219 225 221 208 205 218 231 235 233 236 241 245 247 251 255
124 183 198 273 263 235 252 251 222 219 220 225 245 258 247 245 233 226 216 203 207 211 208 206 204 203 205 209 212 214 220 217 199 209 225 232 228 229 233 238 242 246 255 260
160 152 155 256 292 347 274 238 220 212 208 196 223 243 239 211 217 219 213 203 208 210 207 204 202 202 205 207 204 209 215 202 199 216 228 227 224 230 234 234 237 244 249 251
159 153 161 214 349 252 249 246 219 227 241 217 227 242 221 215 223 223 204 198 207 207 205 206 203 203 205 202 200 203 193 191 204 219 230 229 223 231 234 229 237 242 241 244
162 147 142 156 220 274 290 273 203 209 266 234 227 241 231 201 140 269 217 199 203 202 199 201 197 193 191 190 187 174 180 187 202 222 232 231 221 227 231 235 241 239 236 246
79 117 133 149 187 243 254 259 184 149 279 265 219 229 188 139 174 242 210 190 199 196 189 183 172 166 173 181 163 161 175 181 206 223 231 230 215 218 231 239 244 236 231 247
106 118 164 181 213 257 257 270 136 182 252 290 228 208 173 187 207 212 163 175 179 177 173 158 152 160 173 162 152 159 167 192 213 214 211 210 210 221 236 247 243 240 244 255
189 182 195 162 189 250 261 143 180 232 281 297 273 212 198 214 205 157 168 170 164 159 153 150 149 153 154 152 151 156 174 192 171 149 136 122 100 256 249 248 273 262 250 262
204 197 193 192 215 240 241 226 254 269 279 283 278 259 217 210 201 190 182 174 169 163 158 153 148 142 140 153 155 159 173 157 136 122 114 100 74 49 32 27 336 329 303 272
277 177 188 257 272 271 270 266 273 271 264 275 275 267 221 211 203 191 182 176 172 166 162 153 148 147 151 155 153 156 151 142 131 126 117 98 81 54 39 39 36 33 358 328
268 252 268 274 286 308 307 304 315 316 307 301 299 270 233 217 206 193 187 184 179 170 163 160 160 159 157 151 145 146 144 136 128 122 114 97 82 74 55 47 46 46 34 42
227 233 245 262 277 287 295 307 318 315 311 310 305 294 264 221 215 199 194 188 178 171 163 161 159 155 153 148 144 145 146 140 134 127 120 110 99 84 77 75 57 46 54 51
Height
1489 1497 1504 1504 1502 1504 1508 1513 1513 1507 1502 1507 1509 1507 1503 1503 1505 1506 1507 1509 1510 1512 1515 1517 1518 1519 1519 1519 1519 1518 1516 1514 1513 1511 1510 1508 1507 1506 1505 1504 1502 1501 1500 1499
1495 1499 1495 1496 1500 1503 1507 1511 1510 1505 1502 1505 1508 1507 1501 1500 1501 1501 1503 1505 1507 1510 1513 1515 1516 1517 1518 1519 1518 1517 1516 1514 1512 1511 1510 1509 1507 1506 1505 1504 1502 1501 1500 1498
1494 1493 1491 1496 1501 1505 1507 1509 1507 1506 1505 1505 1508 1509 1502 1498 1498 1499 1501 1503 1505 1507 1509 1512 1514 1516 1517 1518 1517 1516 1515 1514 1512 1511 1510 1509 1508 1507 1505 1504 1503 1501 1500 1498
1491 1490 1491 1496 1499 1501 1508 1500 1501 1504 1512 1518 1514 1526 1507 1500 1498 1497 1498 1500 1502 1505 1507 1510 1512 1514 1516 1516 1516 1516 1515 1514 1513 1511 1510 1509 1508 1507 1505 1504 1503 1501 1500 1498
1492 1490 1492 1496 1495 1496 1500 1498 1502 1506 1512 1520 1517 1524 1514 1502 1500 1496 1494 1496 1498 1502 1505 1508 1510 1513 1514 1515 1515 1515 1514 1514 1513 1512 1511 1509 1508 1507 1506 1504 1503 1502 1500 1499
1490 1489 1489 1490 1491 1493 1497 1503 1509 1517 1522 1530 1519 1525 1519 1505 1496 1491 1490 1492 1495 1499 1502 1506 1509 1512 1513 1514 1514 1514 1514 1513 1512 1512 1511 1509 1508 1507 1506 1504 1503 1501 1500 1499
1493 1491 1488 1488 1493 1496 1499 1514 1529 1530 1538 1533 1518 1520 1514 1493 1489 1487 1487 1488 1492 1496 1500 1504 1507 1509 1511 1512 1512 1513 1513 1512 1512 1511 1510 1509 1508 1507 1505 1504 1503 1501 1500 1498
1501 1502 1490 1487 1490 1497 1502 1509 1529 1536 1539 1531 1519 1520 1502 1488 1484 1483 1484 1486 1490 1493 1497 1501 1504 1507 1508 1510 1511 1511 1511 1511 1511 1510 1509 1508 1507 1506 1505 1504 1502 1501 1499 1498
1500 1500 1487 1486 1487 1492 1503 1509 1511 1526 1529 1533 1525 1513 1495 1484 1483 1483 1483 1485 1488 1491 1494 1498 1502 1504 1506 1508 1509 1510 1510 1510 1510 1509 1508 1507 1506 1505 1504 1503 1502 1500 1499 1497
1490 1497 1490 1487 1488 1493 1497 1506 1519 1527 1535 1537 1528 1517 1506 1489 1484 1483 1483 1484 1485 1489 1492 1495 1499 1502 1504 1506 1507 1508 1508 1508 1508 1508 1507 1506 1505 1504 1503 1502 1501 1499 1498 1497
1487 1496 1495 1491 1492 1496 1502 1507 1516 1527 1529 1538 1536 1519 1489 1484 1480 1480 1480 1481 1483 1486 1489 1493 1496 1499 1502 1504 1505 1506 1507 1507 1507 1506 1506 1505 1504 1503 1502 1501 1500 1499 1497 1496
1488 1497 1503 1496 1489 1489 1492 1499 1510 1520 1524 1531 1534 1518 1480 1479 1477 1477 1477 1479 1481 1484 1487 1490 1493 1496 1499 1501 1503 1504 1505 1505 1505 1505 1504 1504 1503 1502 1501 1500 1499 1498 1496 1495
1487 1497 1508 1507 1502 1494 1492 1496 1500 1510 1521 1532 1531 1512 1478 1476 1474 1474 1475 1477 1479 1482 1484 1487 1490 1493 1495 1498 1500 1501 1502 1503 1503 1503 1503 1502 1502 1501 1500 1499 1498 1497 1496 1494
1481 1493 1502 1507 1502 1493 1492 1494 1499 1505 1517 1522 1517 1501 1483 1476 1474 1472 1472 1474 1476 1478 1481 1483 1486 1489 1492 1495 1497 1498 1500 1501 1501 1502 1501 1501 1501 1500 1499 1498 1497 1496 1495 1494
1481 1491 1492 1491 1488 1488 1488 1488 1494 1497 1497 1502 1496 1492 1479 1471 1469 1467 1468 1471 1473 1475 1477 1480 1483 1485 1488 1491 1493 1495 1497 1498 1499 1500 1500 1500 1500 1499 1498 1498 1497 1496 1494 1493
1482 1487 1489 1489 1484 1486 1488 1484 1485 1487 1487 1488 1485 1481 1464 1463 1464 1464 1465 1467 1469 1471 1473 1476 1479 1482 1485 1487 1490 1492 1494 1496 1497 1497 1498 1498 1498 1497 1497 1496 1496 1495 1494 1492
1485 1488 1495 1498 1489 1487 1491 1478 1475 1476 1473 1474 1476 1465 1456 1460 1459 1457 1459 1461 1463 1466 1469 1472 1475 1478 1481 1484 1487 1489 1491 1493 1494 1495 1495 1496 1496 1495 1495 1495 1494 1493 1492 1491
1483 1488 1495 1497 1492 1497 1479 1463 1463 1465 1461 1460 1457 1451 1450 1450 1450 1452 1454 1456 1459 1462 1465 1468 1471 1475 1478 1481 1484 1486 1488 1490 1491 1492 1493 1493 1493 1493 1493 1493 1492 1491 1491 1490
1475 1484 1496 1500 1498 1491 1473 1459 1459 1462 1458 1447 1448 1444 1444 1447 1450 1449 1450 1452 1455 1459 1462 1465 1468 1471 1474 1477 1480 1483 1485 1487 1488 1489 1490 1490 1490 1490 1490 1490 1489 1489 1488 1487
1477 1479 1491 1499 1494 1493 1471 1453 1452 1457 1458 1440 1439 1438 1441 1445 1453 1446 1444 1448 1452 1455 1459 1462 1465 1468 1471 1474 1477 1480 1482 1483 1485 1486 1487 1487 1487 1487 1487 1486 1486 1485 1485 1484
1481 1484 1489 1494 1493 1481 1457 1451 1453 1465 1457 1438 1435 1435 1437 1438 1437 1437 1441 1445 1449 1452 1455 1458 1461 1464 1468 1471 1474 1476 1478 1480 1482 1483 1483 1484 1484 1483 1483 1482 1482 1481 1480 1480
1477 1483 1487 1491 1491 1480 1449 1451 1455 1451 1441 1438 1435 1433 1432 1431 1434 1436 1439 1442 1445 1449 1452 1455 1458 1461 1465 1468 1470 1473 1475 1477 1478 1479 1480 1480 1480 1479 1479 1478 1477 1476 1476 1475
1470 1468 1470 1471 1464 1450 1448 1448 1446 1444 1441 1438 1435 1433 1431 1431 1432 1434 1436 1439 1443 1446 1449 1452 1455 1458 1461 1464 1467 1470 1472 1474 1475 1476 1476 1476 1476 1476 1475 1474 1472 1471 1471 1470
1463 1461 1463 1463 1452 1446 1445 1444 1443 1441 1439 1436 1434 1432 1430 1429 1429 1431 1434 1437 1440 1443 1446 1449 1452 1455 1458 1461 1464 1466 1469 1470 1471 1472 1473 1473 1472 1472 1470 1469 1468 1467 1466 1465
1462 1461 1461 1459 1450 1444 1440 1441 1440 1438 1436 1433 1431 1429 1428 1427 1427 1428 1430 1433 1435 1438 1442 1445 1448 1451 1454 1457 1460 1463 1465 1466 1468 1469 1469 1469 1469 1468 1467 1466 1465 1463 1462 1462
1458 1458 1459 1454 1448 1447 1442 1438 1438 1436 1433 1431 1429 1426 1425 1424 1423 1424 1426 1428 1431 1434 1437 1441 1444 1447 1450 1453 1456 1459 1461 1463 1464 1465 1465 1465 1465 1465 1464 1463 1462 1461 1461 1460